Location: L�tisburg
(47.3947°N, 9.0820°E)
Time: 07:29:45
(UTC+00:00)

Cosmos 1959 Rocket - Pass Details

Date: 03 March 2021
Orbit: 948 x 996 km, 83.0° (Epoch: 12 April)

Event Time Altitude Azimuth Distance (km) Brightness Sun altitude
Rises 19:10:07 0° 182° (S) 3,608 7.4 -20.7°
Reaches altitude 10° 19:12:36 10° 181° (S) 2,665 6.7 -21.1°
Maximum altitude 19:18:40 78° 96° (E) 976 4.3 -22.1°
Drops below altitude 10° 19:24:48 10° 11° (NNE) 2,689 6.9 -23.1°
Sets 19:27:19 0° 11° (N) 3,643 7.6 -23.5°
